GFSNE_sfc_thetae_081.txt.gz
Theta_e
341 342 341 342 343 344 342 339 330 325 324 327 327 332 334 335 336 333 333 337 337 336 334 334 335 336 338 338 339 339 340 341 339 338 337 336 334 333
339 338 339 341 341 342 341 339 338 330 323 327 325 329 332 333 335 331 332 334 334 333 332 332 333 333 334 335 336 335 334 334 334 333 332 332 331 330
337 337 337 339 339 339 341 340 337 332 323 324 326 327 328 329 329 329 328 329 331 332 331 330 330 330 331 332 332 332 332 332 331 330 330 329 328 328
336 336 337 342 338 340 339 337 337 330 325 321 323 322 325 326 327 326 327 327 328 330 329 328 327 326 326 327 327 327 326 327 327 327 327 327 327 325
334 335 335 338 336 337 336 335 332 329 327 323 320 320 322 325 325 326 325 323 326 329 327 326 325 324 323 322 322 321 320 320 321 321 322 323 324 324
334 333 331 334 334 335 335 332 330 326 323 322 320 319 320 322 323 323 322 321 320 324 325 322 324 325 323 322 321 320 317 316 315 316 316 316 316 319
333 329 326 329 332 333 335 331 327 324 322 321 319 318 318 319 320 322 321 321 319 319 316 315 315 315 317 321 322 322 317 316 314 313 312 311 311 313
330 327 327 330 329 329 330 333 331 325 321 319 319 318 318 319 321 320 320 317 313 321 316 316 315 312 314 313 320 319 317 315 314 313 311 310 310 311
329 331 329 332 328 326 327 328 329 331 329 324 319 318 318 320 321 320 318 317 315 319 318 313 315 312 313 316 319 317 315 314 313 312 311 310 310 309
331 329 328 329 330 326 325 326 325 326 331 333 327 321 321 321 322 322 320 319 321 323 322 313 315 313 312 313 319 316 314 313 312 311 310 309 307 306
331 330 329 327 323 323 330 326 325 323 321 323 326 324 321 320 322 320 317 317 315 318 323 318 317 313 310 308 314 316 313 311 311 311 310 308 305 305
329 329 329 325 318 320 328 327 323 323 322 321 322 322 323 322 321 321 319 316 317 318 322 320 318 315 309 309 307 309 308 309 308 308 307 306 304 299
329 328 324 318 314 315 320 326 324 324 323 322 322 323 325 323 324 325 324 322 320 320 326 323 321 317 312 309 305 305 305 303 304 305 304 303 302 301
329 330 328 313 310 310 314 315 314 317 323 323 321 321 321 322 322 323 324 325 325 323 326 326 321 320 315 312 309 304 304 303 303 302 302 303 303 303
327 325 314 309 307 309 311 311 310 312 313 313 315 321 324 326 324 321 321 321 322 326 328 327 326 323 321 319 314 306 305 305 305 302 302 301 301 302
321 314 313 312 311 314 311 307 307 310 314 312 313 317 318 322 323 325 322 322 320 321 325 327 326 323 317 318 317 315 312 309 307 305 304 304 304 303
324 324 318 318 318 319 316 313 310 310 308 310 314 315 313 313 319 327 325 322 320 319 320 320 327 326 323 318 314 315 313 313 313 311 307 305 306 305
324 325 325 325 324 323 321 318 319 319 315 316 315 316 314 315 316 316 316 314 316 311 311 311 315 314 316 318 324 318 315 313 315 315 311 308 308 310
323 322 321 322 321 321 321 321 321 323 322 321 318 316 316 317 316 316 315 315 313 312 310 313 313 313 311 309 313 317 316 313 308 308 315 312 311 313
318 321 319 321 321 321 321 321 321 321 319 318 317 317 317 316 315 315 315 313 313 312 311 312 311 311 310 310 310 313 308 314 312 311 311 315 317 316
320 322 321 319 320 320 319 317 316 315 314 314 314 314 314 313 312 312 312 307 309 310 309 310 313 313 314 314 310 311 314 308 312 312 310 308 306 307
324 322 319 318 317 316 314 313 312 309 311 311 310 311 311 311 309 308 307 307 306 306 307 309 311 311 310 310 308 309 310 312 309 310 310 310 308 305
321 320 320 319 317 314 312 311 310 310 310 309 309 309 309 308 308 310 309 310 311 310 310 309 308 308 308 308 308 309 309 309 310 310 311 309 308 308

GFSNE_sfc_thetae_087.txt.gz
Theta_e
337 337 337 338 340 340 339 336 331 325 325 327 329 333 335 334 335 331 332 337 337 335 333 334 335 337 338 339 340 340 340 341 342 341 341 340 342 341
336 335 335 336 338 340 340 338 334 329 324 327 328 330 333 333 335 332 332 334 334 334 333 332 334 334 335 336 337 337 337 338 338 336 336 335 335 335
335 334 334 335 334 334 335 336 335 331 325 324 327 329 329 330 329 327 328 326 329 333 331 331 331 332 333 334 334 335 335 334 334 333 333 332 332 332
332 332 332 336 333 334 333 333 335 328 325 321 324 326 327 327 326 324 326 328 327 331 330 329 328 328 328 328 327 327 327 328 329 329 329 330 330 330
333 332 332 332 331 331 333 333 333 329 326 324 321 322 324 326 324 325 323 324 328 330 328 327 327 327 325 324 323 321 319 320 321 322 323 325 326 327
331 330 330 331 330 329 331 330 328 327 327 324 322 320 322 324 324 321 319 322 322 325 325 325 326 328 326 325 324 321 317 315 314 316 317 317 318 321
328 327 325 329 334 332 327 323 324 325 324 323 322 320 319 321 320 322 320 319 320 320 319 318 317 317 320 324 326 324 319 317 315 314 314 313 313 315
327 323 323 331 329 331 330 327 324 323 322 321 320 320 320 321 322 322 320 317 315 317 316 316 315 314 316 317 323 322 318 317 316 314 313 312 312 312
327 324 324 327 327 327 326 326 325 325 325 323 322 322 321 322 323 321 320 318 315 318 315 312 314 313 316 316 320 320 317 316 315 314 313 312 311 310
328 326 324 325 323 325 325 324 323 322 322 322 321 320 320 322 325 324 323 320 320 319 318 312 311 311 312 313 319 319 316 314 314 313 312 310 308 307
326 327 326 325 321 319 324 322 321 321 321 321 321 320 319 319 321 323 319 318 316 318 317 313 312 313 311 310 311 318 315 313 312 312 312 309 306 305
326 326 322 324 317 315 323 321 319 320 321 321 321 317 317 318 320 325 322 318 316 315 318 315 311 310 308 308 310 311 314 311 310 309 310 308 305 302
325 324 325 317 312 310 315 324 321 320 320 320 318 318 316 315 316 319 322 322 318 318 321 318 314 312 312 306 304 307 310 306 308 307 305 304 304 304
322 324 324 314 308 306 310 315 314 317 320 318 316 315 319 319 317 317 317 318 322 323 324 323 319 317 312 309 308 307 308 308 306 305 305 305 304 304
323 320 316 314 309 307 309 310 311 320 318 316 317 319 320 321 318 317 317 317 317 317 322 325 323 318 318 316 313 309 305 305 305 306 304 303 304 302
321 322 318 315 315 318 316 315 316 316 318 319 318 316 318 320 320 320 318 320 319 320 320 320 320 320 320 320 317 313 310 311 306 306 306 304 304 304
322 319 315 313 315 318 318 317 313 314 312 312 312 313 314 312 316 321 320 319 319 318 318 320 322 322 323 322 318 321 316 312 309 306 306 304 303 303
322 323 318 316 316 316 317 317 316 315 315 314 313 313 313 313 314 315 317 321 318 319 319 318 316 316 319 321 325 321 316 316 315 309 307 305 305 306
325 324 322 318 317 319 320 321 320 321 320 318 317 315 316 315 315 315 314 314 311 312 309 310 311 311 308 308 313 317 320 317 316 313 310 308 310 314
324 324 323 323 322 322 320 319 320 319 318 317 316 316 317 316 316 315 315 314 314 313 313 313 312 312 311 311 311 313 308 316 313 313 314 313 314 313
320 319 320 319 319 320 319 319 317 315 314 314 312 313 312 313 311 311 311 306 308 309 307 308 310 311 313 314 310 311 314 309 314 314 313 310 309 309
320 319 318 318 318 317 315 313 312 310 309 309 308 307 307 306 306 305 305 303 303 308 308 309 310 309 311 310 308 308 307 307 308 309 311 312 312 307
319 318 316 314 312 310 310 309 307 307 307 307 307 308 306 305 304 304 304 308 309 309 308 306 306 306 304 307 307 307 308 309 309 308 308 309 308 308

GFSNE_sfc_thetae_090.txt.gz
Theta_e
342 342 341 340 340 339 339 339 335 325 327 330 332 335 338 336 338 337 338 337 336 335 333 334 336 337 338 340 341 341 341 341 342 342 342 342 343 342
340 341 341 342 343 344 343 342 338 335 330 333 333 334 336 335 337 335 336 335 334 334 332 332 334 335 335 336 337 337 338 338 338 338 338 338 338 339
341 340 340 341 342 342 342 342 340 338 332 328 332 332 333 331 330 331 332 333 335 333 332 332 331 332 334 335 335 335 336 336 336 335 335 334 333 334
339 339 339 339 340 340 340 340 339 339 334 327 328 329 329 329 327 326 328 330 332 331 330 330 329 329 328 328 328 328 328 329 330 330 331 331 332 332
338 337 338 338 339 339 339 338 338 333 331 330 326 325 326 327 325 325 326 328 330 330 328 328 328 327 325 323 322 321 320 320 322 323 324 326 328 329
337 338 337 337 338 338 337 335 332 330 329 327 326 325 326 326 325 321 321 325 325 326 327 327 328 329 327 325 325 323 318 316 316 317 318 318 319 323
335 335 334 334 333 335 335 332 330 329 327 325 322 322 322 323 322 322 320 321 323 325 325 325 327 328 328 327 329 325 319 317 315 315 314 313 314 316
333 332 329 332 333 330 331 328 331 331 326 324 323 323 323 324 324 322 320 319 317 325 324 322 326 325 327 328 326 322 319 318 316 315 313 312 312 313
333 331 328 329 331 334 328 326 326 325 327 330 325 325 323 325 325 322 322 321 321 321 321 321 322 322 325 325 321 321 317 316 316 315 314 312 311 311
334 332 330 330 330 333 333 329 329 329 329 329 331 330 331 327 326 326 324 322 321 320 322 318 317 320 323 322 320 320 317 315 315 314 313 311 309 307
332 333 331 331 322 320 332 331 330 329 324 319 321 320 319 320 326 325 321 320 318 320 320 319 316 319 317 318 319 318 316 313 313 313 313 310 307 306
332 332 324 329 316 315 331 330 328 329 330 329 328 323 321 322 321 330 325 320 319 318 321 318 318 316 315 318 319 318 321 312 310 310 311 309 306 315
331 330 331 316 311 310 315 329 328 328 325 330 329 327 325 325 326 327 327 325 321 322 325 323 321 315 317 318 315 315 316 318 319 315 306 306 304 311
330 332 331 312 307 306 311 314 311 319 328 327 326 326 322 322 324 325 327 327 327 327 326 325 321 322 321 319 319 316 317 318 316 317 316 310 304 305
329 325 315 307 304 307 308 308 309 327 327 325 325 325 325 327 326 325 326 326 326 327 326 327 326 325 322 320 322 318 316 314 312 312 311 311 312 311
321 322 319 318 315 318 317 316 325 329 328 328 325 325 325 325 326 326 322 321 321 323 326 327 329 328 325 324 324 323 316 317 314 314 311 309 310 312
324 323 321 321 319 321 319 318 317 318 318 319 318 316 316 319 320 324 323 323 321 322 322 327 327 326 325 327 322 323 324 318 320 315 309 309 311 309
324 321 320 320 321 320 320 318 315 314 315 317 318 318 316 317 317 318 323 321 319 320 322 321 321 320 322 323 325 323 323 321 319 312 310 309 309 309
326 326 325 321 320 320 320 319 317 316 318 317 316 316 315 317 318 317 315 316 316 317 315 316 316 313 312 313 317 318 323 322 319 315 311 309 313 315
325 326 325 324 320 319 319 320 322 321 320 319 318 319 318 318 318 317 317 316 315 314 312 314 314 313 311 312 312 318 309 317 316 315 315 315 316 314
323 322 323 322 321 321 320 319 318 316 316 315 314 315 315 315 313 312 311 307 309 311 309 310 311 311 316 317 313 314 318 309 314 317 317 315 314 314
320 319 319 319 319 318 316 314 314 312 312 312 311 312 312 312 312 311 312 310 311 312 311 312 314 314 314 311 309 310 312 315 312 309 309 308 310 308
318 318 317 315 314 313 312 311 311 311 312 312 312 311 311 310 311 311 311 312 312 311 309 307 306 307 306 305 304 306 307 305 304 306 311 304 303 303

GFSNE_sfc_thetae_096.txt.gz
Theta_e
355 353 345 348 346 346 344 343 338 331 335 342 344 349 345 347 349 349 349 337 336 335 334 336 338 339 340 342 342 342 344 344 345 344 345 346 346 346
358 355 357 356 358 352 347 344 344 340 335 342 344 340 346 344 345 345 341 337 335 334 333 333 336 338 339 339 339 339 340 340 341 340 340 340 340 341
352 349 346 351 350 352 356 355 354 351 343 349 351 348 344 341 340 343 339 339 335 333 333 333 333 335 337 337 337 337 337 337 337 337 338 338 338 338
349 349 348 347 351 356 353 350 351 352 345 341 345 340 341 341 337 335 333 336 336 332 332 332 332 332 331 331 331 330 329 331 333 334 335 336 337 337
349 349 349 350 351 349 350 349 349 350 347 345 339 336 332 332 329 330 329 331 333 332 332 331 329 328 327 325 324 322 322 323 324 325 327 329 331 334
350 350 349 349 349 350 349 351 348 346 347 344 335 331 331 330 328 325 325 332 330 332 331 333 333 329 327 325 324 322 319 318 318 318 319 320 323 326
349 349 349 348 341 342 346 349 349 344 338 336 332 330 328 326 324 326 326 328 333 336 335 337 337 339 335 331 329 325 321 319 317 317 316 315 316 319
346 347 348 342 340 333 333 335 341 344 340 336 331 329 329 329 330 328 326 324 323 334 336 334 338 338 338 339 329 324 321 321 319 318 316 316 316 316
346 346 344 342 341 343 330 331 332 333 331 341 339 338 334 333 332 331 329 329 329 332 335 333 334 335 337 334 325 322 320 319 319 318 317 316 315 314
346 345 346 344 343 340 341 342 341 343 342 340 343 343 343 340 337 333 331 330 326 329 336 330 335 333 335 335 323 321 318 317 317 317 315 314 312 310
344 346 346 345 331 325 341 340 338 340 329 324 324 327 328 327 332 332 325 323 323 324 327 328 327 329 333 333 333 321 317 315 315 315 315 313 310 309
345 346 330 339 320 320 339 341 338 339 339 337 336 329 329 331 324 339 333 325 326 325 331 331 331 331 328 334 333 330 328 314 312 312 312 311 307 323
341 340 342 323 313 313 319 343 340 340 336 340 338 336 337 337 336 337 337 332 329 328 334 336 335 334 333 329 332 333 331 328 328 322 307 307 306 314
342 342 342 316 312 310 316 321 318 325 341 336 335 335 334 334 336 336 340 338 338 337 339 338 335 332 330 332 326 331 332 332 330 328 327 318 307 308
340 336 320 312 310 312 313 314 313 336 335 333 334 335 336 337 341 338 337 339 340 340 338 339 336 333 334 332 335 329 328 329 331 329 329 329 326 324
325 330 329 325 324 329 324 322 336 338 336 335 337 338 340 335 335 336 333 333 331 331 338 340 338 337 332 331 332 332 335 328 330 332 331 330 328 328
323 326 325 328 330 334 335 336 336 340 341 342 344 342 333 331 333 335 332 331 328 328 330 333 336 338 336 337 332 332 335 335 337 333 329 326 324 321
322 327 326 328 327 329 332 335 338 334 341 338 333 331 329 328 328 332 336 332 329 331 332 330 333 332 332 334 330 330 333 333 334 331 323 322 323 325
327 330 329 330 330 329 329 327 325 327 327 326 323 323 323 321 318 320 322 322 324 325 323 326 326 324 319 316 326 314 327 327 326 321 320 321 323 326
326 330 331 331 330 328 327 327 325 324 320 320 320 319 319 317 316 317 318 319 319 318 318 320 322 323 320 320 321 322 312 324 320 320 319 319 320 316
325 327 330 329 328 329 329 328 325 321 318 317 318 318 317 317 317 317 316 310 312 315 314 315 317 316 322 321 318 317 317 309 314 321 320 318 317 320
323 322 322 320 320 320 319 318 317 316 316 316 317 317 316 316 315 313 314 312 312 313 313 316 317 318 318 316 314 315 314 314 309 307 307 308 316 313
319 319 321 320 320 319 318 317 316 315 315 316 315 315 315 314 315 316 317 317 317 316 315 314 316 317 315 313 309 311 313 313 314 313 311 304 304 304

GFSNE_sfc_thetae_099.txt.gz
Theta_e
354 356 356 348 352 359 358 347 341 333 337 347 349 357 353 354 352 350 351 338 337 335 334 335 339 340 342 343 343 343 344 345 346 345 346 346 346 347
358 355 356 357 352 351 348 345 347 340 337 343 344 356 350 348 347 350 347 338 335 334 333 334 337 338 340 341 341 341 340 341 342 341 341 342 341 342
354 351 346 346 349 357 358 353 352 350 339 343 357 355 348 347 347 347 345 345 342 334 333 334 334 336 338 338 338 338 338 338 338 339 339 339 339 339
351 351 350 347 349 349 347 345 345 354 347 345 352 348 348 348 344 343 342 341 340 333 332 332 332 332 332 331 330 330 330 331 333 334 336 336 337 338
350 350 349 351 353 350 353 353 353 355 354 346 348 342 336 337 334 333 334 335 334 333 332 331 330 329 329 327 325 323 321 323 325 327 329 331 333 336
350 350 350 350 351 352 353 352 353 351 350 347 346 336 335 333 331 328 327 334 336 335 333 335 332 330 329 327 325 323 319 318 318 319 321 322 325 328
350 350 350 351 343 348 347 353 354 348 343 343 340 335 331 327 325 327 327 329 334 336 333 337 338 339 336 330 330 327 322 320 318 318 318 317 318 320
346 347 347 344 342 337 336 336 340 349 345 339 336 332 332 330 328 326 328 326 323 338 336 336 340 339 338 339 329 324 321 320 319 318 317 316 316 317
347 346 343 341 342 345 333 331 332 335 337 347 340 340 339 334 330 327 329 328 329 337 337 335 339 339 341 331 325 322 321 320 320 319 318 317 316 315
346 346 348 347 347 344 344 341 340 340 342 342 345 347 348 343 336 333 332 332 333 335 333 333 337 336 340 338 325 322 319 318 318 318 316 315 313 312
345 346 347 348 337 326 342 341 344 341 329 329 329 331 331 330 335 335 328 326 325 327 336 334 334 334 334 335 331 322 319 316 316 316 316 314 311 310
350 351 330 339 323 320 342 340 342 341 341 339 337 331 331 333 327 337 331 325 326 326 335 330 332 332 330 335 336 330 328 314 313 313 313 311 308 322
343 343 344 321 318 314 320 344 341 344 339 341 339 337 338 338 335 337 340 335 330 330 337 334 334 333 333 333 332 333 331 328 326 320 308 308 307 315
345 345 344 316 313 311 317 323 318 325 345 340 338 336 335 335 336 338 341 342 341 341 343 339 337 333 333 333 329 333 333 333 329 328 327 317 307 309
342 335 317 312 309 311 313 317 314 338 341 338 337 336 338 338 342 342 341 344 344 343 340 344 340 340 336 334 335 330 327 328 331 331 329 328 323 323
329 336 330 322 318 329 327 323 335 338 340 337 338 339 340 339 335 338 335 336 333 334 341 344 343 342 334 335 338 335 334 328 329 331 331 330 328 328
315 332 331 333 332 329 329 330 332 337 339 340 345 343 343 343 336 335 333 330 328 329 331 337 340 342 340 342 333 333 334 336 338 334 335 333 330 330
318 326 328 325 326 328 329 330 331 332 342 343 343 343 341 339 332 331 331 328 326 327 330 332 336 335 334 336 328 336 335 330 334 330 331 330 327 323
318 331 330 329 330 329 331 331 328 329 328 329 330 329 327 326 325 325 325 325 325 326 327 328 328 326 322 320 323 313 329 330 328 324 324 321 322 327
326 331 333 334 334 332 333 337 335 329 325 325 323 322 321 321 320 321 323 322 319 318 318 320 320 320 318 317 318 316 306 325 325 323 321 324 326 315
331 329 328 329 331 332 330 329 329 324 324 324 322 320 319 317 316 317 317 311 314 317 315 316 316 317 321 321 316 314 315 308 313 323 324 321 319 320
324 322 322 321 320 324 329 324 319 318 318 318 318 318 319 319 316 315 315 314 314 314 314 314 316 320 320 319 316 313 315 315 309 307 307 310 314 313
318 319 321 321 320 321 321 318 318 319 319 317 317 316 318 316 316 316 315 316 315 314 315 314 316 319 318 316 313 316 315 315 313 310 310 305 305 304